Curtis, Michigan, United States (49820)
Lat: 46.21N, Lon: 85.75W
Wx Zone: MIZ015
Local Info
Past Weather Observations for Today

NOTE: This archive is for the closest National Weather Service station to Curtis. Information may differ from the station used for current weather conditions.

Click here for Long-term Archive

Time Weather Temperature Dewpoint Humidity Pressure Winds Precip Visibility
18:55
Mostly Cloudy
Fog And Mist
16°F / -9°C 16°F / -9°C 100% 29.47 in
(998 mb)
SSW 3.5 mph
(SSW 6 kph)
- 5SM
18:34
Partly Cloudy
18°F / -8°C 18°F / -8°C 100% 29.47 in
(998 mb)
SW 4.6 mph
(SW 7 kph)
- 7SM
18:14
Partly Cloudy
Light Snow
21°F / -6°C 19°F / -7°C 93% 29.44 in
(997 mb)
S 6.9 mph
(S 11 kph)
- 7SM
17:55
Overcast
Light Snow
21°F / -6°C 19°F / -7°C 93% 29.47 in
(998 mb)
SSE 8.1 mph
(SSE 13 kph)
- 4SM
17:34
Overcast
Light Snow
23°F / -5°C 19°F / -7°C 86% 29.47 in
(998 mb)
S 8.1 mph
(S 13 kph)
- 7SM
17:14
Overcast
Light Snow
23°F / -5°C 21°F / -6°C 93% 29.47 in
(998 mb)
SSE 5.8 mph
(SSE 9 kph)
- 5SM
16:55
Overcast
Light Snow
23°F / -5°C 21°F / -6°C 93% 29.47 in
(998 mb)
S 4.6 mph
(S 7 kph)
- 5SM
16:34
Overcast
Light Snow
23°F / -5°C 21°F / -6°C 93% 29.47 in
(998 mb)
SSE 4.6 mph
(SSE 7 kph)
- 3SM
16:15
Overcast
Light Snow
23°F / -5°C 21°F / -6°C 93% 29.5 in
(999 mb)
S 5.8 mph
(S 9 kph)
- 1 1/2SM
15:54
Overcast
Light Snow
23°F / -5°C 21°F / -6°C 93% 29.5 in
(999 mb)
S 5.8 mph
(S 9 kph)
- 1SM
15:34
Overcast
Light Snow
21°F / -6°C 21°F / -6°C 100% 29.5 in
(999 mb)
SSE 5.8 mph
(SSE 9 kph)
- 3/4SM
15:15
Overcast
Snow
23°F / -5°C 21°F / -6°C 93% 29.5 in
(999 mb)
SSE 8.1 mph
(SSE 13 kph)
- 1/2SM
14:54
Overcast
Snow
23°F / -5°C 21°F / -6°C 93% 29.53 in
(1000 mb)
SSE 6.9 mph
(SSE 11 kph)
0.01 in
(0.25 mm)
1/4SM
14:34
Overcast
Snow
23°F / -5°C 21°F / -6°C 93% 29.56 in
(1001 mb)
SSE 4.6 mph
(SSE 7 kph)
- 1/2SM
14:15
Overcast
Light Snow
23°F / -5°C 21°F / -6°C 93% 29.56 in
(1001 mb)
S 6.9 mph
(S 11 kph)
- 3/4SM
13:54
Overcast
Snow
21°F / -6°C 21°F / -6°C 100% 29.59 in
(1002 mb)
SSE 5.8 mph
(SSE 9 kph)
- 1/4SM
13:35
Overcast
Light Snow
21°F / -6°C 19°F / -7°C 93% 29.59 in
(1002 mb)
SSE 8.1 mph
(SSE 13 kph)
- 1/2SM
13:14
Overcast
Light Snow
21°F / -6°C 19°F / -7°C 93% 29.62 in
(1003 mb)
SSE 4.6 mph
(SSE 7 kph)
- 1/4SM
12:54
Overcast
Snow
21°F / -6°C 19°F / -7°C 93% 29.65 in
(1004 mb)
SSE 6.9 mph
(SSE 11 kph)
- 1/4SM
12:35
Overcast
Light Snow
21°F / -6°C 19°F / -7°C 93% 29.68 in
(1005 mb)
SSE 8.1 mph
(SSE 13 kph)
- 1 1/4SM
12:14
Overcast
Light Snow
21°F / -6°C 19°F / -7°C 93% 29.71 in
(1006 mb)
S 9.2 mph
(S 15 kph)
- 1 1/2SM
11:54
Overcast
Light Snow
21°F / -6°C 19°F / -7°C 93% 29.74 in
(1007 mb)
S 13.8 mph
(S 22 kph)
- 1SM
11:35
Overcast
21°F / -6°C 18°F / -8°C 86% 29.74 in
(1007 mb)
S 16.1 mph
(S 26 kph)
- 7SM
11:14
Overcast
21°F / -6°C 18°F / -8°C 86% 29.74 in
(1007 mb)
S 16.1 mph
(S 26 kph)
- 7SM
10:55
Overcast
19°F / -7°C 18°F / -8°C 93% 29.74 in
(1007 mb)
S 12.7 mph
(S 20 kph)
- 7SM
10:34
Overcast
19°F / -7°C 18°F / -8°C 93% 29.77 in
(1008 mb)
S 10.4 mph
(S 17 kph)
- 7SM
10:14
Overcast
19°F / -7°C 18°F / -8°C 93% 29.8 in
(1009 mb)
SSE 10.4 mph
(SSE 17 kph)
- 10SM
09:55
Overcast
19°F / -7°C 18°F / -8°C 93% 29.83 in
(1010 mb)
S 13.8 mph
(S 22 kph)
- 7SM
09:34
Overcast
Light Snow
19°F / -7°C 18°F / -8°C 93% 29.83 in
(1010 mb)
S 10.4 mph
(S 17 kph)
- 2SM
09:14
Overcast
Light Snow
18°F / -8°C 16°F / -9°C 93% 29.86 in
(1011 mb)
S 11.5 mph
(S 19 kph)
- 1SM
08:55
Overcast
Light Snow
18°F / -8°C 16°F / -9°C 93% 29.89 in
(1012 mb)
S 9.2 mph
(S 15 kph)
- 3/4SM
08:34
Overcast
Light Snow
16°F / -9°C 14°F / -10°C 93% 29.89 in
(1012 mb)
SSE 9.2 mph
(SSE 15 kph)
- 1 1/4SM
08:14
Overcast
Light Snow
16°F / -9°C 14°F / -10°C 93% 29.92 in
(1013 mb)
SSE 10.4 mph
(SSE 17 kph)
- 1 1/4SM
07:55
Overcast
Light Snow
16°F / -9°C 14°F / -10°C 93% 29.92 in
(1013 mb)
S 9.2 mph
(S 15 kph)
- 1 1/4SM
07:34
Overcast
Light Snow
14°F / -10°C 14°F / -10°C 100% 29.95 in
(1014 mb)
S 9.2 mph
(S 15 kph)
- 2SM
07:15
Overcast
Light Snow
14°F / -10°C 12°F / -11°C 92% 29.95 in
(1014 mb)
SSE 10.4 mph
(SSE 17 kph)
- 2 1/2SM
06:54
Overcast
Light Snow
14°F / -10°C 10°F / -12°C 85% 29.98 in
(1015 mb)
SSE 9.2 mph
(SSE 15 kph)
- 4SM
06:34
Overcast
12°F / -11°C 9°F / -13°C 85% 29.98 in
(1015 mb)
SSE 9.2 mph
(SSE 15 kph)
- 10SM
06:15
Mostly Cloudy
12°F / -11°C 9°F / -13°C 85% 30.01 in
(1016 mb)
SSE 8.1 mph
(SSE 13 kph)
- 10SM
05:54
Partly Cloudy
10°F / -12°C 7°F / -14°C 85% 30.01 in
(1016 mb)
SSE 6.9 mph
(SSE 11 kph)
- 10SM
05:34
Clear
9°F / -13°C 5°F / -15°C 85% 30.01 in
(1016 mb)
SSE 6.9 mph
(SSE 11 kph)
- 10SM
05:15
Partly Cloudy
9°F / -13°C 5°F / -15°C 85% 30.04 in
(1017 mb)
SSE 6.9 mph
(SSE 11 kph)
- 10SM
04:54
Overcast
9°F / -13°C 7°F / -14°C 92% 30.04 in
(1017 mb)
SSE 8.1 mph
(SSE 13 kph)
- 10SM
04:34
Overcast
10°F / -12°C 7°F / -14°C 85% 30.06 in
(1018 mb)
SE 6.9 mph
(SE 11 kph)
- 10SM
04:15
Mostly Cloudy
12°F / -11°C 7°F / -14°C 79% 30.06 in
(1018 mb)
SE 6.9 mph
(SE 11 kph)
- 10SM
03:54
Clear
12°F / -11°C 7°F / -14°C 79% 30.09 in
(1019 mb)
SSE 9.2 mph
(SSE 15 kph)
- 10SM
03:35
Partly Cloudy
12°F / -11°C 9°F / -13°C 85% 30.09 in
(1019 mb)
S 11.5 mph
(S 19 kph)
- 10SM
03:14
Overcast
14°F / -10°C 9°F / -13°C 79% 30.12 in
(1020 mb)
S 10.4 mph
(S 17 kph)
- 10SM
02:54
Overcast
14°F / -10°C 9°F / -13°C 79% 30.12 in
(1020 mb)
S 10.4 mph
(S 17 kph)
- 10SM
02:35
Overcast
12°F / -11°C 9°F / -13°C 85% 30.15 in
(1021 mb)
S 11.5 mph
(S 19 kph)
- 10SM
02:14
Mostly Cloudy
12°F / -11°C 9°F / -13°C 85% 30.15 in
(1021 mb)
S 10.4 mph
(S 17 kph)
- 10SM
01:54
Clear
10°F / -12°C 9°F / -13°C 92% 30.18 in
(1022 mb)
S 10.4 mph
(S 17 kph)
- 10SM
01:35
Clear
10°F / -12°C 7°F / -14°C 85% 30.18 in
(1022 mb)
S 10.4 mph
(S 17 kph)
- 10SM
01:14
Clear
10°F / -12°C 7°F / -14°C 85% 30.18 in
(1022 mb)
S 8.1 mph
(S 13 kph)
- 10SM
00:54
Clear
10°F / -12°C 7°F / -14°C 85% 30.18 in
(1022 mb)
S 9.2 mph
(S 15 kph)
- 10SM
00:35
Clear
10°F / -12°C 7°F / -14°C 85% 30.18 in
(1022 mb)
S 8.1 mph
(S 13 kph)
- 10SM
00:14
Clear
10°F / -12°C 7°F / -14°C 85% 30.21 in
(1023 mb)
S 8.1 mph
(S 13 kph)
- 10SM
Time Weather Temperature Dewpoint Humidity Pressure Winds Precip Visibility


Weather for websites

WeatherForYou.com, LLC is not responsible for any damages or problems caused by this service. Current weather conditions are obtained from the closest station including government and personal stations which may have varying degrees of accuracy. Weather forecasts are derived from the NOAA NDFD. Like all things, this site belongs to Jesus Christ... He just trusts me to maintain it. If you have any questions or comments email webmaster@weatherforyou.com

Copyright © 2015, WeatherForYou.com LLC. All rights reserved.